User: anonymous   Login
Location: Unspecified
(35.7250°N, 0.0000°E)
Time: 15:30:21
(UTC+00:00)
Language:

Courier 1B Rocket - Orbit

View from above orbital plane
View from above orbital plane
View from above satellite
View from above satellite

Ground track
Ground track

The orbit data is extracted from the following two-line orbital elements,

1    59U 60013B   19166.80375847 +.00000095 +00000-0 +13311-4 0  9996
2    59 028.2488 306.7280 0189179 080.3775 281.8089 13.52968295896772
Epoch (UTC): 15 June 2019 19:17:24
Eccentricity: 0.0189179
inclination: 28.2488°
perigee height: 920 km
apogee height: 1202 km
right ascension of ascending node: 306.7280°
argument of perigee: 80.3775°
revolutions per day: 13.52968295
mean anomaly at epoch: 281.8089°
orbit number at epoch: 89677

The dashed part of the orbit path shows where the satellite is in the earth's shadow,  

DLR